Location: Altmatt
(47.1333°N, 8.7000°E)
Time: 19:14:08
(UTC+00:00)

Lacrosse 5 rocket - Pass Details

Date: 13 July 2020
Orbit: 465 x 632 km, 57.0° (Epoch: 11 August)

Event Time Altitude Azimuth Distance (km) Brightness Sun altitude
Rises 22:09:01 0° 306° (NW) 2,726 5.8 -18.8°
Reaches altitude 10° 22:11:19 10° 302° (WNW) 1,799 4.7 -18.9°
Maximum altitude 22:15:18 58° 224° (SW) 603 1.3 -19.1°
Enters shadow 22:15:48 53° 189° (S) 636 1.2 -19.2°
